When you browse on this site, cookies collect data to enhance your experience and personalize the content and advertising you see.
Visit our Privacy Policy to learn more. By continuing to use the site, you agree to this use of cookies and data.

Hourly Weather Donskie Ozerki

Today, 11 July, Saturday

Time Temperature Precipitation Wind Pressure Humidity
00:00 +15°C° 0 mm 1 mps 752 mmHg 79%
01:00 +15°C° 0 mm 1 mps 752 mmHg 80%
02:00 +15°C° 0 mm 1 mps 752 mmHg 81%
03:00 +14°C° 0 mm 1 mps 752 mmHg 81%
04:00 +15°C° 0 mm 1 mps 752 mmHg 81%
05:00 +15°C° 0 mm 1 mps 752 mmHg 82%
06:00 +16°C° 0 mm 2 mps 753 mmHg 83%
07:00 +17°C° 0 mm 2 mps 753 mmHg 79%
08:00 +19°C° 0 mm 2 mps 752 mmHg 75%
09:00 +21°C° 0 mm 3 mps 752 mmHg 71%
10:00 +21°C° 0 mm 3 mps 752 mmHg 68%
11:00 +22°C° 0 mm 3 mps 752 mmHg 65%
12:00 +24°C° 0 mm 3 mps 753 mmHg 62%
13:00 +25°C° 0 mm 3 mps 752 mmHg 62%
14:00 +25°C° 0 mm 3 mps 752 mmHg 62%
15:00 +25°C° 0 mm 3 mps 752 mmHg 62%
16:00 +25°C° 0 mm 3 mps 752 mmHg 64%
17:00 +25°C° 0 mm 2 mps 751 mmHg 67%
18:00 +25°C° 0 mm 2 mps 751 mmHg 70%
19:00 +23°C° 0 mm 2 mps 751 mmHg 74%
20:00 +21°C° 0 mm 2 mps 751 mmHg 77%
21:00 +19°C° 0 mm 2 mps 751 mmHg 80%
22:00 +19°C° 0 mm 2 mps 751 mmHg 80%
23:00 +18°C° 0 mm 2 mps 751 mmHg 81%

Tomorrow, 12 July, Sunday

Time Temperature Precipitation Wind Pressure Humidity
00:00 +18°C° 0 mm 2 mps 751 mmHg 82%
01:00 +17°C° 0 mm 2 mps 750 mmHg 82%
02:00 +17°C° 0 mm 2 mps 750 mmHg 82%
03:00 +16°C° 0 mm 2 mps 750 mmHg 83%
04:00 +17°C° 0 mm 2 mps 750 mmHg 83%
05:00 +17°C° 0 mm 2 mps 750 mmHg 83%
06:00 +19°C° 0 mm 1 mps 750 mmHg 83%
07:00 +19°C° 0 mm 2 mps 750 mmHg 79%
08:00 +21°C° 0 mm 2 mps 750 mmHg 74%
09:00 +23°C° 0 mm 2 mps 750 mmHg 69%
10:00 +24°C° 0 mm 2 mps 749 mmHg 66%
11:00 +25°C° 0 mm 2 mps 749 mmHg 63%
12:00 +26°C° 0 mm 2 mps 749 mmHg 60%
13:00 +26°C° 0 mm 2 mps 749 mmHg 60%
14:00 +27°C° 0 mm 2 mps 748 mmHg 60%
15:00 +27°C° 0 mm 3 mps 748 mmHg 59%
16:00 +27°C° 0 mm 2 mps 748 mmHg 62%
17:00 +27°C° 0 mm 2 mps 747 mmHg 64%
18:00 +27°C° 0 mm 1 mps 747 mmHg 66%
19:00 +25°C° 0 mm 1 mps 747 mmHg 69%
20:00 +23°C° 0 mm 1 mps 747 mmHg 73%
21:00 +21°C° 0 mm 1 mps 746 mmHg 77%
22:00 +21°C° 0 mm 1 mps 746 mmHg 78%
23:00 +20°C° 0 mm 1 mps 746 mmHg 80%

Day after tomorrow, 13 July, Monday

Time Temperature Precipitation Wind Pressure Humidity
00:00 +20°C° 0 mm 1 mps 746 mmHg 82%
01:00 +18°C° 0 mm 2 mps 745 mmHg 84%
02:00 +18°C° 0 mm 2 mps 745 mmHg 86%
03:00 +17°C° 0 mm 2 mps 745 mmHg 87%
04:00 +18°C° 0 mm 2 mps 744 mmHg 87%
05:00 +18°C° 0 mm 2 mps 744 mmHg 87%
06:00 +19°C° 0 mm 2 mps 743 mmHg 87%
07:00 +20°C° 0 mm 2 mps 743 mmHg 83%
08:00 +21°C° 0 mm 2 mps 743 mmHg 80%
09:00 +24°C° 0 mm 3 mps 743 mmHg 76%
10:00 +25°C° 0 mm 2 mps 743 mmHg 73%
11:00 +26°C° 0 mm 2 mps 742 mmHg 71%
12:00 +26°C° 0 mm 2 mps 742 mmHg 68%
13:00 +26°C° 0.6 mm 2 mps 742 mmHg 71%
14:00 +26°C° 0.6 mm 2 mps 741 mmHg 74%
15:00 +26°C° 0.6 mm 3 mps 741 mmHg 77%
16:00 +26°C° 0.9 mm 3 mps 741 mmHg 80%
17:00 +25°C° 0.9 mm 3 mps 740 mmHg 83%
18:00 +24°C° 0.9 mm 3 mps 740 mmHg 86%
19:00 +23°C° 0.8 mm 2 mps 740 mmHg 88%
20:00 +21°C° 0.8 mm 2 mps 740 mmHg 91%
21:00 +21°C° 0.8 mm 1 mps 740 mmHg 94%
22:00 +21°C° 0.1 mm 1 mps 740 mmHg 94%
23:00 +21°C° 0.1 mm 1 mps 740 mmHg 95%

14 July, Tuesday

Time Temperature Precipitation Wind Pressure Humidity
00:00 +20°C° 0.1 mm 1 mps 740 mmHg 95%
01:00 +20°C° 0.1 mm 1 mps 740 mmHg 96%
02:00 +20°C° 0.1 mm 1 mps 739 mmHg 96%
03:00 +20°C° 0.1 mm 1 mps 739 mmHg 96%
04:00 +20°C° 0.1 mm 1 mps 739 mmHg 96%
05:00 +20°C° 0.1 mm 1 mps 739 mmHg 95%
06:00 +21°C° 0.1 mm 1 mps 739 mmHg 94%
07:00 +21°C° 0.2 mm 1 mps 739 mmHg 91%
08:00 +22°C° 0.2 mm 1 mps 739 mmHg 88%
09:00 +23°C° 0.2 mm 1 mps 739 mmHg 85%
10:00 +23°C° 1.1 mm 1 mps 740 mmHg 84%
11:00 +24°C° 1.1 mm 2 mps 740 mmHg 82%
12:00 +25°C° 1.1 mm 2 mps 740 mmHg 81%
13:00 +24°C° 1 mm 3 mps 740 mmHg 83%
14:00 +23°C° 1 mm 4 mps 740 mmHg 85%
15:00 +22°C° 1 mm 5 mps 739 mmHg 87%
16:00 +21°C° 0.1 mm 6 mps 739 mmHg 88%
17:00 +20°C° 0.1 mm 6 mps 739 mmHg 89%
18:00 +20°C° 0.1 mm 6 mps 739 mmHg 90%
19:00 +19°C° 0.1 mm 6 mps 740 mmHg 91%
20:00 +17°C° 0.1 mm 6 mps 740 mmHg 92%
21:00 +17°C° 0.1 mm 6 mps 740 mmHg 92%
22:00 +16°C° 0.5 mm 6 mps 740 mmHg 93%
23:00 +16°C° 0.5 mm 6 mps 740 mmHg 94%

15 July, Wednesday

Time Temperature Precipitation Wind Pressure Humidity
00:00 +16°C° 0.5 mm 5 mps 740 mmHg 96%
01:00 +16°C° 1.7 mm 5 mps 739 mmHg 96%
02:00 +16°C° 1.7 mm 5 mps 739 mmHg 96%
03:00 +15°C° 1.7 mm 5 mps 739 mmHg 97%
04:00 +15°C° 2.3 mm 5 mps 739 mmHg 97%
05:00 +15°C° 2.3 mm 6 mps 739 mmHg 97%
06:00 +15°C° 2.3 mm 7 mps 739 mmHg 97%
07:00 +15°C° 2.2 mm 7 mps 739 mmHg 96%
08:00 +15°C° 2.2 mm 7 mps 739 mmHg 96%
09:00 +15°C° 2.2 mm 8 mps 739 mmHg 96%
10:00 +15°C° 1.6 mm 7 mps 739 mmHg 96%
11:00 +15°C° 1.6 mm 7 mps 739 mmHg 95%
12:00 +15°C° 1.6 mm 7 mps 739 mmHg 95%
13:00 +15°C° 0.7 mm 8 mps 739 mmHg 95%
14:00 +13°C° 0.7 mm 8 mps 740 mmHg 95%
15:00 +13°C° 0.7 mm 8 mps 740 mmHg 94%
16:00 +13°C° 0.5 mm 9 mps 740 mmHg 94%
17:00 +12°C° 0.5 mm 9 mps 740 mmHg 94%
18:00 +12°C° 0.5 mm 9 mps 740 mmHg 94%
19:00 +12°C° 0.2 mm 9 mps 741 mmHg 93%
20:00 +12°C° 0.2 mm 8 mps 741 mmHg 93%
21:00 +11°C° 0.2 mm 8 mps 741 mmHg 92%
22:00 +11°C° 0 mm 8 mps 741 mmHg 92%
23:00 +11°C° 0 mm 7 mps 741 mmHg 91%

16 July, Thursday

Time Temperature Precipitation Wind Pressure Humidity
00:00 +11°C° 0 mm 7 mps 741 mmHg 90%
01:00 +11°C° 0 mm 7 mps 741 mmHg 90%
02:00 +11°C° 0 mm 7 mps 741 mmHg 89%
03:00 +11°C° 0 mm 6 mps 741 mmHg 88%
04:00 +11°C° 0.1 mm 6 mps 741 mmHg 89%
05:00 +11°C° 0.1 mm 6 mps 741 mmHg 89%
06:00 +12°C° 0.1 mm 5 mps 741 mmHg 90%
07:00 +13°C° 0 mm 5 mps 741 mmHg 89%
08:00 +13°C° 0 mm 5 mps 741 mmHg 87%
09:00 +14°C° 0 mm 5 mps 741 mmHg 86%
10:00 +15°C° 0 mm 5 mps 741 mmHg 84%
11:00 +15°C° 0 mm 5 mps 741 mmHg 82%
12:00 +16°C° 0 mm 5 mps 741 mmHg 80%
13:00 +17°C° 0.1 mm 5 mps 742 mmHg 79%
14:00 +18°C° 0.1 mm 4 mps 742 mmHg 79%
15:00 +19°C° 0.1 mm 4 mps 742 mmHg 78%
16:00 +18°C° 0.1 mm 3 mps 742 mmHg 81%
17:00 +18°C° 0.1 mm 3 mps 742 mmHg 83%
18:00 +18°C° 0.1 mm 3 mps 741 mmHg 85%
19:00 +17°C° 0 mm 2 mps 742 mmHg 86%
20:00 +16°C° 0 mm 2 mps 742 mmHg 87%
21:00 +15°C° 0 mm 2 mps 742 mmHg 89%
22:00 +15°C° 0 mm 2 mps 742 mmHg 88%
23:00 +15°C° 0 mm 2 mps 742 mmHg 88%
Show more